Weather History for Long Beach, CA

Change the Weather History Date:

Friday, January 25, 2013

  Actual Average Record
Temperature  
Mean Temperature 64 °F 57 °F  
Max Temperature 68 °F 68 °F 85 °F (2003)
Min Temperature 59 °F 46 °F 37 °F (1965)
Degree Days  
Heating Degree Days 1 8  
Month to date heating degree days 229 208  
Since 1 July heating degree days 566 628  
Cooling Degree Days 0 0  
Month to date cooling degree days 0 0  
Year to date cooling degree days 0 0  
Growing Degree Days 12 (Base 50)    
Moisture  
Dew Point 59 °F    
Average Humidity 85    
Maximum Humidity 97    
Minimum Humidity 73    
Precipitation  
Precipitation 0.10 in 0.08 in 1.91 in (1969)
Month to date precipitation 0.92 2.11  
Year to date precipitation 0.92 2.11  
Since 1 July precipitation 4.72 5.93  
Sea Level Pressure  
Sea Level Pressure 30.03 in    
Wind  
Wind Speed 4 mph (North)    
Max Wind Speed 9 mph    
Max Gust Speed 14 mph    
Visibility 10 miles    
Events Rain    
T = Trace of Precipitation, MM = Missing Value Source: NWS Daily Summary

Daily Weather History Graph

Daily Weather History Graph

Search for Another Location

Airport:

Trip Planner

Search our weather history database for the weather conditions in past years. The results will help you decide how hot, cold, wet, or windy it might be!

Date:

Astronomy

Jan. 25, 2013 Rise Set
Actual Time 6:53 AM PST 5:16 PM PST
Civil Twilight 6:26 AM PST 5:43 PM PST
Nautical Twilight 5:56 AM PST 6:13 PM PST
Astronomical Twilight 5:27 AM PST 6:43 PM PST
Moon 4:18 PM PST (1/25) 5:35 AM PST (1/25)
Length of Visible Light 11h 16m
Length of Day
10h 23m
Waxing Gibbous, 98% of the Moon is Illuminated
Jan 25
Waxing Gibbous
Jan 26
Full
Feb 3
Last Quarter
Feb 9
New
Feb 17
First Quarter

Hourly Weather History & Observations

Time (PST) Temp. Dew Point Humidity Pressure Visibility Wind Dir Wind Speed Gust Speed Precip Events Conditions
12:53 AM 60.1 °F 57.0 °F 90% 30.11 in 10.0 mi NNW 4.6 mph - 0.00 in   Overcast
1:53 AM 60.1 °F 57.9 °F 93% 30.11 in 10.0 mi Calm Calm - 0.00 in Rain Light Rain
2:53 AM 60.1 °F 57.9 °F 93% 30.06 in 10.0 mi WNW 5.8 mph - 0.01 in Rain Light Rain
3:53 AM 60.1 °F 57.9 °F 93% 30.05 in 10.0 mi NW 3.5 mph - 0.00 in   Mostly Cloudy
4:53 AM 60.1 °F 57.9 °F 93% 30.06 in 6.0 mi WNW 4.6 mph - 0.02 in Rain Light Rain
5:53 AM 60.1 °F 57.9 °F 93% 30.06 in 10.0 mi Variable 3.5 mph - 0.03 in Rain Light Rain
6:53 AM 60.1 °F 57.9 °F 93% 30.08 in 8.0 mi ENE 4.6 mph - 0.01 in Rain Light Rain
7:53 AM 60.1 °F 57.9 °F 93% 30.09 in 10.0 mi ENE 3.5 mph - 0.01 in   Overcast
8:53 AM 61.0 °F 57.9 °F 90% 30.10 in 10.0 mi East 5.8 mph - N/A   Overcast
9:53 AM 64.0 °F 57.9 °F 80% 30.11 in 10.0 mi East 6.9 mph - N/A   Overcast
10:32 AM 64.4 °F 57.2 °F 77% 30.10 in 10.0 mi ENE 6.9 mph - N/A   Overcast
10:53 AM 64.9 °F 57.9 °F 78% 30.11 in 10.0 mi East 6.9 mph - N/A   Overcast
11:53 AM 66.9 °F 57.9 °F 73% 30.07 in 10.0 mi NE 5.8 mph - 0.00 in   Overcast
12:53 PM 66.0 °F 57.9 °F 75% 30.02 in 10.0 mi ENE 6.9 mph - 0.00 in   Overcast
1:53 PM 66.9 °F 57.9 °F 73% 30.01 in 10.0 mi East 3.5 mph - N/A   Overcast
2:53 PM 66.0 °F 60.1 °F 81% 30.01 in 10.0 mi Calm Calm - 0.00 in Rain Light Rain
3:53 PM 66.0 °F 59.0 °F 78% 29.98 in 10.0 mi Calm Calm - 0.01 in   Overcast
4:53 PM 64.0 °F 60.1 °F 87% 29.97 in 10.0 mi NNW 4.6 mph - 0.00 in Rain Light Rain
5:53 PM 63.0 °F 59.0 °F 87% 29.98 in 10.0 mi West 4.6 mph - 0.00 in   Overcast
6:53 PM 63.0 °F 60.1 °F 90% 29.99 in 9.0 mi WNW 5.8 mph - 0.01 in Rain Light Rain
7:53 PM 62.1 °F 61.0 °F 96% 29.96 in 7.0 mi NNW 6.9 mph - 0.00 in Rain Light Rain
8:00 PM 62.6 °F 60.8 °F 94% 29.96 in 10.0 mi NNW 6.9 mph - 0.00 in   Mostly Cloudy
8:53 PM 61.0 °F 60.1 °F 97% 29.98 in 10.0 mi WNW 3.5 mph - 0.00 in   Overcast
9:53 PM 60.1 °F 59.0 °F 96% 29.96 in 10.0 mi NW 3.5 mph - N/A   Mostly Cloudy
10:53 PM 61.0 °F 59.0 °F 93% 29.97 in 10.0 mi Calm Calm - N/A   Overcast
11:53 PM 60.1 °F 59.0 °F 96% 29.95 in 8.0 mi NW 3.5 mph - N/A   Overcast